Time,TemperatureF,DewpointF,PressureIn,WindDirection,WindDirectionDegrees,WindSpeedMPH,WindSpeedGustMPH,Humidity,HourlyPrecipIn,Conditions,Clouds,dailyrainin,SoftwareType,DateUTC
2013-09-29 00:03:00,61.0,46.0,30.28,NNE,22,1.0,5.0,58,0.00,,,0.21,,2013-09-29 05:03:00,
2013-09-29 00:22:00,60.0,46.0,30.28,NNW,348,2.0,5.0,60,0.00,,,0.21,,2013-09-29 05:22:00,
2013-09-29 00:34:00,60.0,46.0,30.28,NNW,348,2.0,5.0,60,0.00,,,0.21,,2013-09-29 05:34:00,
2013-09-29 00:53:00,60.0,46.0,30.27,North,11,4.0,6.0,60,0.00,,,0.21,,2013-09-29 05:53:00,
2013-09-29 01:03:00,60.0,46.0,30.27,North,11,4.0,6.0,60,0.00,,,0.21,,2013-09-29 06:03:00,
2013-09-29 01:12:00,60.0,46.0,30.27,North,11,4.0,6.0,60,0.00,,,0.21,,2013-09-29 06:12:00,
2013-09-29 01:22:00,60.0,46.0,30.27,North,5,0.0,4.0,59,0.00,,,0.21,,2013-09-29 06:22:00,
2013-09-29 01:32:00,60.0,46.0,30.27,North,5,0.0,4.0,59,0.00,,,0.21,,2013-09-29 06:32:00,
2013-09-29 01:52:00,59.0,45.0,30.27,North,5,1.0,5.0,60,0.00,,,0.21,,2013-09-29 06:52:00,
2013-09-29 02:02:00,59.0,45.0,30.27,North,5,1.0,5.0,60,0.00,,,0.21,,2013-09-29 07:02:00,
2013-09-29 02:11:00,59.0,45.0,30.27,North,5,1.0,5.0,60,0.00,,,0.21,,2013-09-29 07:11:00,
2013-09-29 02:22:00,59.0,46.0,30.27,North,360,0.0,3.0,61,0.00,,,0.21,,2013-09-29 07:22:00,
2013-09-29 02:32:00,59.0,46.0,30.27,North,360,0.0,3.0,61,0.00,,,0.21,,2013-09-29 07:32:00,
2013-09-29 02:52:00,58.0,45.0,30.25,NNE,14,1.0,5.0,62,0.00,,,0.21,,2013-09-29 07:52:00,
2013-09-29 03:02:00,58.0,45.0,30.25,NNE,14,1.0,5.0,62,0.00,,,0.21,,2013-09-29 08:02:00,
2013-09-29 03:22:00,58.0,45.0,30.25,ENE,65,0.0,5.0,63,0.00,,,0.21,,2013-09-29 08:22:00,
2013-09-29 03:32:00,58.0,45.0,30.25,ENE,65,0.0,5.0,63,0.00,,,0.21,,2013-09-29 08:32:00,
2013-09-29 03:52:00,57.0,46.0,30.25,North,5,4.0,8.0,66,0.00,,,0.10,,2013-09-29 08:52:00,
2013-09-29 04:02:00,57.0,46.0,30.25,North,5,4.0,8.0,66,0.00,,,0.10,,2013-09-29 09:02:00,
2013-09-29 04:22:00,57.0,47.0,30.25,NE,37,0.0,1.0,69,0.00,,,0.10,,2013-09-29 09:22:00,
2013-09-29 04:33:00,57.0,47.0,30.25,NE,37,0.0,1.0,69,0.00,,,0.10,,2013-09-29 09:33:00,
2013-09-29 04:53:00,56.0,47.0,30.24,NE,37,0.0,0.0,72,0.00,,,0.00,,2013-09-29 09:53:00,
2013-09-29 05:00:00,55.0,47.0,30.24,NE,37,0.0,0.0,75,0.00,,,0.00,,2013-09-29 10:00:00,
2013-09-29 05:03:00,56.0,47.0,30.24,NE,37,0.0,0.0,72,0.00,,,0.00,,2013-09-29 10:03:00,
2013-09-29 05:23:00,55.0,47.0,30.24,NE,37,0.0,0.0,75,0.00,,,0.00,,2013-09-29 10:23:00,
2013-09-29 05:32:00,55.0,47.0,30.24,NE,37,0.0,0.0,75,0.00,,,0.00,,2013-09-29 10:32:00,
2013-09-29 05:53:00,55.0,47.0,30.24,NE,37,0.0,0.0,75,0.00,,,0.00,,2013-09-29 10:53:00,
2013-09-29 07:52:00,52.0,45.0,30.26,ENE,59,0.0,1.0,77,0.00,,,0.00,,2013-09-29 12:52:00,
2013-09-29 08:22:00,52.0,45.0,30.27,ENE,59,0.0,0.0,78,0.00,,,0.00,,2013-09-29 13:22:00,
2013-09-29 08:53:00,52.0,46.0,30.27,NE,49,1.0,3.0,80,0.00,,,0.00,,2013-09-29 13:53:00,
2013-09-29 09:12:00,52.0,46.0,30.27,NE,49,1.0,3.0,80,0.00,,,0.00,,2013-09-29 14:12:00,
2013-09-29 09:52:00,61.0,49.0,30.28,ESE,115,0.0,3.0,65,0.00,,,0.00,,2013-09-29 14:52:00,
2013-09-29 10:22:00,64.0,47.0,30.29,ESE,121,0.0,1.0,55,0.00,,,0.00,,2013-09-29 15:22:00,
2013-09-29 10:55:00,66.0,49.0,30.27,South,178,1.0,5.0,54,0.00,,,0.00,,2013-09-29 15:55:00,
2013-09-29 11:04:00,66.0,49.0,30.27,South,178,1.0,5.0,54,0.00,,,0.00,,2013-09-29 16:04:00,
2013-09-29 11:14:00,66.0,49.0,30.27,South,178,1.0,5.0,54,0.00,,,0.00,,2013-09-29 16:14:00,
2013-09-29 11:24:00,68.0,47.0,30.27,South,171,1.0,4.0,47,0.00,,,0.00,,2013-09-29 16:24:00,
2013-09-29 11:33:00,68.0,47.0,30.27,South,171,1.0,4.0,47,0.00,,,0.00,,2013-09-29 16:33:00,
2013-09-29 11:54:00,72.0,48.0,30.27,SSE,158,2.0,4.0,42,0.00,,,0.00,,2013-09-29 16:54:00,
2013-09-29 12:03:00,72.0,48.0,30.27,SSE,158,2.0,4.0,42,0.00,,,0.00,,2013-09-29 17:03:00,
2013-09-29 12:24:00,74.0,50.0,30.26,West,267,6.0,15.0,43,0.00,,,0.00,,2013-09-29 17:24:00,
2013-09-29 12:34:00,74.0,50.0,30.26,West,267,6.0,15.0,43,0.00,,,0.00,,2013-09-29 17:34:00,
2013-09-29 12:52:00,75.0,49.0,30.25,West,279,4.0,10.0,40,0.00,,,0.00,,2013-09-29 17:52:00,
2013-09-29 13:02:00,75.0,49.0,30.25,West,279,4.0,10.0,40,0.00,,,0.00,,2013-09-29 18:02:00,
2013-09-29 13:13:00,75.0,49.0,30.25,West,279,4.0,10.0,40,0.00,,,0.00,,2013-09-29 18:13:00,
2013-09-29 13:22:00,77.0,46.0,30.24,WNW,293,9.0,15.0,33,0.00,,,0.00,,2013-09-29 18:22:00,
2013-09-29 13:32:00,77.0,46.0,30.24,WNW,293,9.0,15.0,33,0.00,,,0.00,,2013-09-29 18:32:00,
2013-09-29 13:52:00,76.0,46.0,30.22,West,268,6.0,15.0,34,0.00,,,0.00,,2013-09-29 18:52:00,
2013-09-29 14:02:00,76.0,46.0,30.22,West,268,6.0,15.0,34,0.00,,,0.00,,2013-09-29 19:02:00,
2013-09-29 14:11:00,76.0,46.0,30.22,West,268,6.0,15.0,34,0.00,,,0.00,,2013-09-29 19:11:00,
2013-09-29 14:22:00,76.0,47.0,30.20,West,269,2.0,17.0,36,0.00,,,0.00,,2013-09-29 19:22:00,
2013-09-29 14:32:00,76.0,47.0,30.20,West,269,2.0,17.0,36,0.00,,,0.00,,2013-09-29 19:32:00,
2013-09-29 14:52:00,79.0,46.0,30.17,WNW,301,3.0,14.0,31,0.00,,,0.00,,2013-09-29 19:52:00,
2013-09-29 15:02:00,79.0,46.0,30.17,WNW,301,3.0,14.0,31,0.00,,,0.00,,2013-09-29 20:02:00,
2013-09-29 15:22:00,79.0,43.0,30.16,WNW,302,5.0,14.0,28,0.00,,,0.00,,2013-09-29 20:22:00,
2013-09-29 15:32:00,79.0,43.0,30.16,WNW,302,5.0,14.0,28,0.00,,,0.00,,2013-09-29 20:32:00,
2013-09-29 15:52:00,80.0,43.0,30.15,West,269,5.0,15.0,27,0.00,,,0.00,,2013-09-29 20:52:00,
2013-09-29 16:02:00,80.0,43.0,30.15,West,269,5.0,15.0,27,0.00,,,0.00,,2013-09-29 21:02:00,
2013-09-29 16:21:00,82.0,45.0,30.14,West,271,4.0,13.0,27,0.00,,,0.00,,2013-09-29 21:21:00,
2013-09-29 16:34:00,82.0,45.0,30.14,West,271,4.0,13.0,27,0.00,,,0.00,,2013-09-29 21:34:00,
2013-09-29 16:55:00,81.0,44.0,30.13,SW,221,4.0,15.0,27,0.00,,,0.00,,2013-09-29 21:55:00,
2013-09-29 17:04:00,81.0,44.0,30.13,SW,221,4.0,15.0,27,0.00,,,0.00,,2013-09-29 22:04:00,
2013-09-29 17:24:00,82.0,43.0,30.13,NW,315,5.0,13.0,25,0.00,,,0.00,,2013-09-29 22:24:00,
2013-09-29 17:33:00,82.0,43.0,30.13,NW,315,5.0,13.0,25,0.00,,,0.00,,2013-09-29 22:33:00,
2013-09-29 17:53:00,81.0,44.0,30.12,West,263,6.0,14.0,27,0.00,,,0.00,,2013-09-29 22:53:00,
2013-09-29 18:03:00,81.0,44.0,30.12,West,263,6.0,14.0,27,0.00,,,0.00,,2013-09-29 23:03:00,
2013-09-29 18:12:00,81.0,44.0,30.12,West,263,6.0,14.0,27,0.00,,,0.00,,2013-09-29 23:12:00,
2013-09-29 18:23:00,80.0,42.0,30.12,WNW,290,4.0,10.0,26,0.00,,,0.00,,2013-09-29 23:23:00,
2013-09-29 18:34:00,80.0,42.0,30.12,WNW,290,4.0,10.0,26,0.00,,,0.00,,2013-09-29 23:34:00,
2013-09-29 18:53:00,79.0,42.0,30.12,WSW,239,2.0,9.0,27,0.00,,,0.00,,2013-09-29 23:53:00,
2013-09-29 19:01:00,79.0,42.0,30.12,WSW,239,2.0,9.0,27,0.00,,,0.00,,2013-09-30 00:01:00,
2013-09-29 19:11:00,79.0,42.0,30.12,WSW,239,2.0,9.0,27,0.00,,,0.00,,2013-09-30 00:11:00,
2013-09-29 19:22:00,78.0,43.0,30.12,West,268,1.0,5.0,29,0.00,,,0.00,,2013-09-30 00:22:00,
2013-09-29 19:32:00,78.0,43.0,30.12,West,268,1.0,5.0,29,0.00,,,0.00,,2013-09-30 00:32:00,
2013-09-29 19:42:00,78.0,43.0,30.12,West,268,1.0,5.0,29,0.00,,,0.00,,2013-09-30 00:42:00,
2013-09-29 19:52:00,75.0,47.0,30.12,East,91,0.0,5.0,37,0.00,,,0.00,,2013-09-30 00:52:00,
2013-09-29 20:02:00,75.0,47.0,30.12,East,91,0.0,5.0,37,0.00,,,0.00,,2013-09-30 01:02:00,
2013-09-29 20:11:00,75.0,47.0,30.12,East,91,0.0,5.0,37,0.00,,,0.00,,2013-09-30 01:11:00,
2013-09-29 20:22:00,70.0,46.0,30.13,East,98,0.0,1.0,42,0.00,,,0.00,,2013-09-30 01:22:00,
2013-09-29 20:32:00,70.0,46.0,30.13,East,98,0.0,1.0,42,0.00,,,0.00,,2013-09-30 01:32:00,
2013-09-29 20:52:00,69.0,46.0,30.16,East,82,0.0,0.0,44,0.00,,,0.00,,2013-09-30 01:52:00,
2013-09-29 21:02:00,69.0,46.0,30.16,East,82,0.0,0.0,44,0.00,,,0.00,,2013-09-30 02:02:00,
2013-09-29 21:22:00,66.0,47.0,30.16,ENE,64,0.0,1.0,51,0.00,,,0.00,,2013-09-30 02:22:00,
2013-09-29 21:32:00,66.0,47.0,30.16,ENE,64,0.0,1.0,51,0.00,,,0.00,,2013-09-30 02:32:00,
2013-09-29 21:42:00,66.0,47.0,30.16,ENE,64,0.0,1.0,51,0.00,,,0.00,,2013-09-30 02:42:00,
2013-09-29 21:52:00,63.0,46.0,30.17,NW,313,0.0,2.0,54,0.00,,,0.00,,2013-09-30 02:52:00,
2013-09-29 22:02:00,63.0,46.0,30.17,NW,313,0.0,2.0,54,0.00,,,0.00,,2013-09-30 03:02:00,
2013-09-29 22:22:00,62.0,47.0,30.17,NW,313,2.0,3.0,57,0.00,,,0.00,,2013-09-30 03:22:00,
2013-09-29 22:34:00,62.0,47.0,30.17,NW,313,2.0,3.0,57,0.00,,,0.00,,2013-09-30 03:34:00,
2013-09-29 22:55:00,61.0,45.0,30.17,WNW,292,0.0,2.0,56,0.00,,,0.00,,2013-09-30 03:55:00,
2013-09-29 23:04:00,61.0,45.0,30.17,WNW,292,0.0,2.0,56,0.00,,,0.00,,2013-09-30 04:04:00,
2013-09-29 23:14:00,61.0,45.0,30.17,WNW,292,0.0,2.0,56,0.00,,,0.00,,2013-09-30 04:14:00,
2013-09-29 23:24:00,60.0,45.0,30.18,WNW,292,0.0,0.0,57,0.00,,,0.00,,2013-09-30 04:24:00,
2013-09-29 23:33:00,60.0,45.0,30.18,WNW,292,0.0,0.0,57,0.00,,,0.00,,2013-09-30 04:33:00,
2013-09-29 23:44:00,60.0,45.0,30.18,WNW,292,0.0,0.0,57,0.00,,,0.00,,2013-09-30 04:44:00,
2013-09-29 23:53:00,60.0,45.0,30.18,WNW,291,0.0,1.0,57,0.00,,,0.00,,2013-09-30 04:53:00,